Weather History for West Palm Beach, FL

Change the Weather History Date:

Thursday, August 14, 2014

  Actual Average Record
Temperature  
Mean Temperature 85 °F 83 °F  
Max Temperature 92 °F 90 °F 98 °F (1963)
Min Temperature 77 °F 76 °F 70 °F (1923)
Degree Days  
Heating Degree Days 0 0  
Month to date heating degree days 0 0  
Since 1 June heating degree days 0 0  
Since 1 July heating degree days 0 0  
Cooling Degree Days 20 18  
Month to date cooling degree days 267 252  
Year to date cooling degree days 2671 2400  
Since 1 June cooling degree days 1319 1291  
Growing Degree Days 34 (Base 50)    
Moisture  
Dew Point 76 °F    
Average Humidity 77    
Maximum Humidity 94    
Minimum Humidity 60    
Precipitation  
Precipitation 0.31 in 0.26 in 4.55 in (2007)
Month to date precipitation 6.32 3.38  
Year to date precipitation 39.75 36.15  
Snow  
Snow 0.00 in - - ()
Month to date snowfall 0.0  
Since 1 June snowfall 0.0  
Since 1 July snowfall 0.0  
Snow Depth 0.00 in    
Sea Level Pressure  
Sea Level Pressure 30.01 in    
Wind  
Wind Speed 5 mph (South)    
Max Wind Speed 18 mph    
Max Gust Speed 23 mph    
Visibility 10 miles    
Events Rain , Thunderstorm    
T = Trace of Precipitation, MM = Missing Value Source: NWS Daily Summary

Daily Weather History Graph

Daily Weather History Graph

Search for Another Location

Airport:

Trip Planner

Search our weather history database for the weather conditions in past years. The results will help you decide how hot, cold, wet, or windy it might be!

Date:

Astronomy

Aug. 14, 2014 Rise Set
Actual Time 6:51 AM EDT 7:57 PM EDT
Civil Twilight 6:27 AM EDT 8:22 PM EDT
Nautical Twilight 5:58 AM EDT 8:50 PM EDT
Astronomical Twilight 5:28 AM EDT 9:20 PM EDT
Moon 10:52 PM EDT (8/14) 10:56 AM EDT (8/14)
Length of Visible Light 13h 54m
Length of Day
13h 06m
Waning Gibbous, 79% of the Moon is Illuminated
Aug 14
Waning Gibbous
Aug 17
Last Quarter
Aug 25
New
Sep 2
First Quarter
Sep 8
Full

Hourly Weather History & Observations

Time (EDT) Temp. Heat Index Dew Point Humidity Pressure Visibility Wind Dir Wind Speed Gust Speed Precip Events Conditions
12:53 AM 80.1 °F 85.4 °F 75.9 °F 87% 30.02 in 10.0 mi South 3.5 mph - N/A   Partly Cloudy
1:53 AM 80.1 °F 85.1 °F 75.0 °F 85% 30.00 in 10.0 mi South 4.6 mph - N/A   Partly Cloudy
2:53 AM 81.0 °F 86.7 °F 75.0 °F 82% 29.98 in 10.0 mi South 6.9 mph - N/A   Partly Cloudy
3:53 AM 79.0 °F - 75.0 °F 88% 29.98 in 10.0 mi SW 4.6 mph - N/A   Scattered Clouds
4:53 AM 79.0 °F - 75.9 °F 90% 29.99 in 10.0 mi SW 3.5 mph - N/A   Scattered Clouds
5:53 AM 78.1 °F - 75.9 °F 93% 29.99 in 10.0 mi Calm Calm - N/A   Scattered Clouds
6:53 AM 78.1 °F - 75.9 °F 93% 30.00 in 10.0 mi Calm Calm - N/A   Scattered Clouds
7:53 AM 80.1 °F 86.4 °F 78.1 °F 94% 30.03 in 10.0 mi Calm Calm - N/A   Scattered Clouds
8:53 AM 84.0 °F 93.7 °F 77.0 °F 79% 30.04 in 10.0 mi WSW 5.8 mph - N/A   Scattered Clouds
9:53 AM 86.0 °F 96.9 °F 77.0 °F 74% 30.04 in 10.0 mi SW 6.9 mph - N/A   Scattered Clouds
10:53 AM 88.0 °F 98.5 °F 75.9 °F 67% 30.05 in 10.0 mi SW 9.2 mph - N/A   Scattered Clouds
11:53 AM 88.0 °F 96.5 °F 73.9 °F 63% 30.05 in 10.0 mi Calm Calm - N/A   Scattered Clouds
12:53 PM 91.0 °F 101.6 °F 75.0 °F 59% 30.02 in 10.0 mi SW 8.1 mph - N/A   Scattered Clouds
1:53 PM 90.0 °F 102.5 °F 77.0 °F 65% 30.01 in 10.0 mi ESE 11.5 mph - N/A   Scattered Clouds
2:53 PM 90.0 °F 101.3 °F 75.9 °F 63% 29.99 in 10.0 mi SSE 9.2 mph - N/A   Scattered Clouds
3:15 PM 82.9 °F 90.8 °F 75.9 °F 79% 29.99 in 2.0 mi Variable 5.8 mph 20.7 mph 0.10 in Rain , Thunderstorm Heavy Thunderstorms and Rain
3:22 PM 81.0 °F 86.2 °F 73.9 °F 79% 30.00 in 3.0 mi Variable 5.8 mph - 0.30 in Rain , Thunderstorm Heavy Thunderstorms and Rain
3:53 PM 80.1 °F 85.1 °F 75.0 °F 85% 29.99 in 10.0 mi SSE 9.2 mph - 0.30 in Thunderstorm Thunderstorm
4:53 PM 80.1 °F 85.1 °F 75.0 °F 85% 30.01 in 10.0 mi ESE 10.4 mph - N/A Thunderstorm Thunderstorm
5:53 PM 80.1 °F 84.5 °F 73.9 °F 81% 30.02 in 10.0 mi ESE 8.1 mph - 0.00 in Thunderstorm Thunderstorm
6:46 PM 80.1 °F 85.1 °F 75.0 °F 85% 30.03 in 10.0 mi East 8.1 mph - 0.00 in Rain Light Rain
6:53 PM 80.1 °F 85.4 °F 75.9 °F 87% 30.02 in 10.0 mi East 9.2 mph - 0.00 in Rain Light Rain
7:53 PM 80.1 °F 84.5 °F 73.9 °F 81% 29.99 in 10.0 mi ENE 4.6 mph - 0.01 in   Mostly Cloudy
8:53 PM 79.0 °F - 75.0 °F 88% 30.02 in 10.0 mi Calm Calm - N/A   Mostly Cloudy
9:53 PM 79.0 °F - 75.9 °F 90% 30.03 in 10.0 mi WSW 4.6 mph - N/A   Mostly Cloudy
10:53 PM 80.1 °F 85.4 °F 75.9 °F 87% 30.04 in 10.0 mi SSE 3.5 mph - N/A   Mostly Cloudy
11:53 PM 80.1 °F 85.4 °F 75.9 °F 87% 30.03 in 10.0 mi East 3.5 mph - N/A   Mostly Cloudy